カタログに戻る

TVSAT 1

運用中通信GEO
NORAD 18570·PAYLOAD·🇩🇪 Germany

打ち上げ Nov 21, 1987 から Guiana Space Centre

Loading…

TLE

最新Source: Space-Track

元期: Sep 9, 2026, 20:06 UTC

1 18570U 87095A   26252.83794564 -.00000039  00000-0  00000+0 0  9995
2 18570  11.1412 327.4933 0061640 137.8347 218.7891  0.98919699129675

AllMySatでTVSAT 1をリアルタイム追跡

Download on the App Store